[[{"header":{"parameterUnit":"m.s-1","parameterCategory":1,"la1":30.2991,"la2":30.254,"lo1":-89.0895,"lo2":-89.0444,"dy":0.0017,"dx":0.0017,"nx":28,"ny":28,"refTime":"2024-02-02T03:00:00:Z","depth":0,"parameterNumber":2,"parameterNumberName":"U-component_of_WINDS"},"data":[0,0,0,0,0,0,0,0,0,0,0,0,0,0,0,0,0,0,0,0,0,0,0,0,0,0,0,0,0,0,0,0,0,0,0,0,0,0,0,0,0,0,0,0,0,0,0,0,0,0,0,0,0,0,0,0,0,0,-8.5915,-8.5914,0,-8.5843,-8.5842,-8.5842,-8.5639,-8.5634,-8.563,-8.5626,-8.5558,-8.556,-8.5562,0,0,0,0,0,0,0,0,0,0,0,0,0,-8.5883,-8.5885,-8.5915,-8.5914,-8.5913,-8.5843,-8.5842,-8.5841,-8.5639,-8.5634,-8.5629,-8.5624,-8.5557,-8.556,-8.5563,0,0,0,0,0,0,0,0,0,0,0,0,0,-8.5863,-8.5885,-8.5915,-8.5804,-8.5793,-8.5844,-8.5842,-8.5841,-8.5641,-8.5634,-8.5627,-8.5621,-8.5556,-8.5559,-8.5563,-8.5717,0,0,-8.5573,-8.5575,0,0,0,0,0,0,0,0,-8.5865,-8.5865,-8.5821,-8.5812,-8.58,-8.5743,-8.5806,-8.58,-8.5642,-8.5699,-8.5625,-8.5618,-8.5625,-8.5622,-8.5624,-8.5714,-8.5711,-8.5574,-8.5576,-8.5577,-8.5578,0,0,0,0,0,0,0,-8.5866,-8.5867,-8.5887,-8.5821,-8.5808,-8.576,-8.5749,-8.5804,-8.57,-8.5693,-8.5678,-8.5672,-8.5618,-8.5621,-8.5621,-8.571,-8.5574,-8.5577,-8.5579,-8.558,-8.5923,-8.593,0,0,0,0,0,0,-8.5883,-8.5869,-8.5889,-8.5884,-8.5816,-8.5766,-8.5754,-8.5768,-8.5699,-8.5682,-8.5678,-8.5663,-8.5618,-8.5617,-8.5618,-8.5792,-8.5577,-8.5581,-8.5583,-8.5916,-8.5925,-8.5932,0,0,0,0,0,0,-8.5883,-8.5886,-8.5892,-8.5873,-8.587,-8.5773,-8.579,-8.577,-8.5772,-8.5687,-8.5668,-8.57,-8.5613,-8.5613,-8.5693,-8.5787,-8.5582,-8.5585,-8.5908,-8.5919,-8.5929,-8.6145,0,0,0,0,0,0,-8.5883,-8.5888,-8.5944,-8.5875,-8.5871,-8.5968,-8.5796,-8.5773,-8.5778,-8.5758,-8.5703,-8.5687,-8.5608,-8.5689,-8.5697,-8.5788,-8.5588,-8.5899,-8.5913,-8.5925,-8.6129,-8.6162,-8.6189,0,0,0,0,0,-8.5882,-8.6009,-8.5947,-8.5951,-8.5939,-8.5973,-8.5971,-8.5876,-8.5787,-8.5843,-8.5789,-8.5689,-8.5777,-8.5699,-8.5706,-8.58,-8.5893,-8.5909,-8.5924,-8.6115,-8.6155,-8.6189,0,0,0,0,0,0,-8.6092,-8.5997,-8.5929,-8.6036,-8.6014,-8.5939,-8.6007,-8.5921,-8.5925,-8.5906,-8.579,-8.5779,-8.5876,-8.5846,-8.5762,-8.5946,-8.5818,-8.5836,-8.5961,-8.5998,-8.6028,-8.6032,-8.5591,0,0,0,0,0,-8.6151,-8.6184,-8.6101,-8.6204,-8.6196,-8.6105,-8.6116,-8.6044,-8.6017,-8.6008,-8.5959,-8.5938,-8.5961,-8.5978,-8.5995,-8.6125,-8.611,-8.6193,-8.6223,-8.6249,-8.6265,-8.6332,-8.6367,-8.5984,-8.5984,-8.5984,0,0,-8.6272,-8.6225,-8.6253,-8.6245,-8.6219,-8.6259,-8.6098,-8.6146,-8.6174,-8.6015,-8.6087,-8.6052,-8.6022,-8.6128,-8.6172,-8.6106,-8.6368,-8.6269,-8.629,-8.6292,-8.6352,-8.6388,-8.642,-8.5995,-8.5993,-8.5992,0,0,-8.6513,-8.6481,-8.6562,-8.654,-8.6503,-8.6441,-8.6462,-8.64,-8.6369,-8.644,-8.6321,-8.6355,-8.6397,-8.638,-8.6377,-8.6614,-8.6522,-8.6623,-8.6781,-8.6847,-8.6877,-8.6903,-8.6987,-8.7019,-8.664,-8.6641,-8.6641,0,-8.6669,-8.6721,-8.6616,-8.6671,-8.6672,-8.6529,-8.6612,-8.6596,-8.6568,-8.6572,-8.6498,-8.6548,-8.6517,-8.6617,-8.6675,-8.6678,-8.6698,-8.6628,-8.6881,-8.6906,-8.6929,-8.7008,-8.704,-8.6653,-8.6652,-8.6651,-8.6649,0,-8.6914,-8.6953,-8.7024,-8.6998,-8.7006,-8.7076,-8.6983,-8.7005,-8.6935,-8.6882,-8.6956,-8.6915,-8.692,-8.694,-8.6871,-8.7031,-8.6991,-8.6902,-8.677,-8.698,-8.7051,-8.7081,-8.6671,-8.6666,-8.6663,-8.666,0,0,-8.7282,-8.7198,-8.7226,-8.7212,-8.7162,-8.719,-8.7255,-8.7259,-8.7279,-8.7266,-8.7317,-8.7357,-8.7274,-8.7271,-8.72,-8.7259,-8.7449,-8.7161,-8.7159,-8.7215,-8.7622,-8.7688,-8.7724,-8.7389,-8.7394,-8.7398,-8.7624,0,-8.7508,-8.7609,-8.7518,-8.7638,-8.7673,-8.7539,-8.7595,-8.7572,-8.7526,-8.755,-8.7499,-8.7528,-8.7417,-8.7414,-8.7466,-8.7415,-8.7528,-8.7397,-8.7436,-8.7438,-8.7445,-8.7762,-8.7831,-8.8045,-8.7651,-8.7656,-8.7659,0,-8.7784,-8.7781,-8.7905,-8.7847,-8.7858,-8.791,-8.7906,-8.7931,-8.7903,-8.7865,-8.7863,-8.7776,-8.7837,-8.7711,-8.7794,-8.7707,-8.7718,-8.7696,-8.7702,-8.7699,-8.756,-8.7767,-8.8111,-8.8143,-8.7703,-8.7699,-8.7696,0,-8.8038,-8.8066,-8.8142,-8.8136,-8.8071,-8.811,-8.8086,-8.8051,-8.8059,-8.8057,-8.8062,-8.8069,-8.8072,-8.8081,-8.7999,-8.7915,-8.8093,-8.796,-8.8063,-8.8065,-8.8104,-8.8102,-8.8454,-8.8116,-8.8115,-8.8115,-8.8114,0,-8.8298,-8.8379,-8.8255,-8.8303,-8.839,-8.8286,-8.8376,-8.8337,-8.8308,-8.8347,-8.8234,-8.8273,-8.8164,-8.8193,-8.813,-8.8208,-8.8211,-8.8183,-8.8165,-8.8192,-8.8195,-8.8195,-8.8177,-8.8123,-8.8121,-8.812,-8.8118,0,-8.8595,-8.8516,-8.8591,-8.8524,-8.8509,-8.8576,-8.8519,-8.8561,-8.8508,-8.8559,-8.8565,-8.8482,-8.851,-8.843,-8.8447,-8.8404,-8.8517,-8.8476,-8.8526,-8.8513,-8.862,-8.861,-8.8982,-8.9025,-8.8662,-8.8666,-8.8669,0,-8.8765,-8.8823,-8.8763,-8.8779,-8.876,-8.879,-8.8797,-8.8699,-8.8712,-8.8686,-8.8732,-8.875,-8.8759,-8.8811,-8.8754,-8.8766,-8.8723,-8.8853,-8.8724,-8.875,-8.8723,-8.872,-8.8725,-8.8879,-8.8883,-8.8887,-8.889,0,-8.9075,-8.9033,-8.9047,-8.9049,-8.9061,-8.9058,-8.9047,-8.9069,-8.8963,-8.8984,-8.9011,-8.9018,-8.9035,-8.9055,-8.9055,-8.9031,-8.8944,-8.8931,-8.8955,-8.8982,-8.9007,-8.8993,-8.8596,-8.8922,-8.8919,-8.8917,-8.8915,-8.8914,-8.9311,-8.9357,-8.9321,-8.9341,-8.9323,-8.9316,-8.9352,-8.9303,-8.9323,-8.9327,-8.9269,-8.9308,-8.928,-8.9271,-8.9257,-8.9288,-8.9228,-8.9264,-8.9272,-8.9282,-8.9299,-8.9005,-8.9288,-8.9287,-8.9286,-8.9285,-8.9284,0,-8.9613,-8.9584,-8.9604,-8.9591,-8.9608,-8.9524,-8.9508,-8.9528,-8.9563,-8.9544,-8.9556,-8.9587,-8.9607,-8.9552,-8.9564,-8.9599,-8.9559,-8.9605,-8.96,-8.9596,-8.9352,-8.9329,-8.9637,-8.9637,-8.9637,-8.9637,-8.9637,-8.9637,-8.9772,-8.9844,-8.9799,-8.9862,-8.9833,-8.9868,-8.9866,-8.986,-8.9844,-8.9884,-8.9899,-8.9862,-8.983,-8.9838,-8.9854,-8.9837,-8.9846,-8.9906,-8.9876,-8.9648,-8.9614,-8.9581,-8.9558,-8.9909,-8.991,-9.0116,-9.0118,-9.012]},{"header":{"parameterUnit":"m.s-1","parameterCategory":1,"la1":30.2991,"la2":30.254,"lo1":-89.0895,"lo2":-89.0444,"dy":0.0017,"dx":0.0017,"nx":28,"ny":28,"refTime":"2024-02-02T03:00:00:Z","depth":0,"parameterNumber":3,"parameterNumberName":"V-component_of_WINDS"},"data":[0,0,0,0,0,0,0,0,0,0,0,0,0,0,0,0,0,0,0,0,0,0,0,0,0,0,0,0,0,0,0,0,0,0,0,0,0,0,0,0,0,0,0,0,0,0,0,0,0,0,0,0,0,0,0,0,0,0,-0.6517,-0.6517,0,-0.6551,-0.6551,-0.6552,-0.6597,-0.6597,-0.6598,-0.6599,-0.6629,-0.6629,-0.6629,0,0,0,0,0,0,0,0,0,0,0,0,0,-0.6484,-0.6484,-0.6517,-0.6517,-0.6518,-0.6551,-0.6551,-0.6552,-0.6596,-0.6597,-0.6598,-0.6599,-0.6629,-0.6629,-0.6629,0,0,0,0,0,0,0,0,0,0,0,0,0,-0.6506,-0.6484,-0.6517,-0.6544,-0.6547,-0.6551,-0.6551,-0.6552,-0.6596,-0.6597,-0.6598,-0.66,-0.6629,-0.6629,-0.6629,-0.6607,0,0,-0.6629,-0.663,0,0,0,0,0,0,0,0,-0.6505,-0.6507,-0.654,-0.6542,-0.6546,-0.6571,-0.6551,-0.657,-0.6596,-0.6577,-0.6599,-0.66,-0.6608,-0.661,-0.6614,-0.6609,-0.661,-0.663,-0.663,-0.663,-0.663,0,0,0,0,0,0,0,-0.6503,-0.6506,-0.653,-0.654,-0.6544,-0.6552,-0.6557,-0.6555,-0.6586,-0.6579,-0.6582,-0.6586,-0.661,-0.6614,-0.6615,-0.661,-0.663,-0.663,-0.663,-0.663,-0.6583,-0.6582,0,0,0,0,0,0,-0.6498,-0.6504,-0.6529,-0.6531,-0.6528,-0.6552,-0.6557,-0.6561,-0.6586,-0.6591,-0.6585,-0.6588,-0.6613,-0.6615,-0.6616,-0.6589,-0.663,-0.663,-0.663,-0.6584,-0.6583,-0.6581,0,0,0,0,0,0,-0.6497,-0.65,-0.6528,-0.6519,-0.6523,-0.6552,-0.6556,-0.6561,-0.6565,-0.6591,-0.6596,-0.6583,-0.6614,-0.6616,-0.6608,-0.659,-0.663,-0.663,-0.6586,-0.6584,-0.6582,-0.6535,0,0,0,0,0,0,-0.6496,-0.65,-0.6494,-0.6518,-0.6523,-0.6522,-0.6555,-0.6561,-0.6566,-0.657,-0.6591,-0.6595,-0.6615,-0.6608,-0.6608,-0.6591,-0.663,-0.6588,-0.6585,-0.6583,-0.6538,-0.6532,-0.6526,0,0,0,0,0,-0.6495,-0.6479,-0.6493,-0.6496,-0.6517,-0.6521,-0.6523,-0.6548,-0.6564,-0.6557,-0.6572,-0.6594,-0.6592,-0.6607,-0.6608,-0.659,-0.6589,-0.6586,-0.6583,-0.6541,-0.6533,-0.6526,0,0,0,0,0,0,-0.6452,-0.6483,-0.6499,-0.6492,-0.6503,-0.6528,-0.652,-0.6539,-0.6545,-0.6549,-0.6577,-0.6581,-0.6569,-0.6579,-0.6594,-0.6568,-0.6593,-0.6591,-0.6561,-0.6554,-0.6548,-0.6545,-0.663,0,0,0,0,0,-0.6441,-0.6444,-0.6471,-0.6461,-0.6466,-0.6492,-0.6494,-0.6512,-0.6524,-0.6529,-0.6545,-0.6554,-0.6555,-0.6556,-0.6559,-0.654,-0.6543,-0.6528,-0.6522,-0.6517,-0.6514,-0.65,-0.6492,-0.6571,-0.6571,-0.6571,0,0,-0.642,-0.6437,-0.6437,-0.6453,-0.6464,-0.6462,-0.6496,-0.6494,-0.6493,-0.6529,-0.6522,-0.6533,-0.6545,-0.6531,-0.6525,-0.6539,-0.6492,-0.6513,-0.6509,-0.6508,-0.6496,-0.6488,-0.6482,-0.6569,-0.657,-0.657,0,0,-0.638,-0.6395,-0.6387,-0.6396,-0.6412,-0.6429,-0.6426,-0.6448,-0.6457,-0.645,-0.6476,-0.6473,-0.6476,-0.6482,-0.6486,-0.6442,-0.6461,-0.6442,-0.641,-0.6396,-0.639,-0.6384,-0.6365,-0.6358,-0.6439,-0.6439,-0.6439,0,-0.6351,-0.6352,-0.638,-0.6375,-0.6379,-0.6412,-0.6401,-0.6409,-0.6424,-0.6425,-0.644,-0.6441,-0.6452,-0.6437,-0.6426,-0.6429,-0.6424,-0.644,-0.6389,-0.6384,-0.6379,-0.6361,-0.6354,-0.6437,-0.6437,-0.6437,-0.6437,0,-0.6313,-0.6313,-0.6304,-0.6318,-0.6321,-0.6314,-0.6337,-0.6336,-0.6352,-0.6366,-0.6356,-0.637,-0.6374,-0.6372,-0.6388,-0.6358,-0.6365,-0.6384,-0.641,-0.6368,-0.6351,-0.6345,-0.6433,-0.6434,-0.6435,-0.6435,0,0,-0.6249,-0.6275,-0.6271,-0.6276,-0.6294,-0.6293,-0.6285,-0.6289,-0.6286,-0.6295,-0.6286,-0.6285,-0.6302,-0.6305,-0.6322,-0.631,-0.6269,-0.633,-0.6331,-0.6315,-0.6231,-0.6215,-0.6207,-0.6282,-0.6281,-0.628,-0.6229,0,-0.621,-0.62,-0.6222,-0.6205,-0.6202,-0.6231,-0.6223,-0.6231,-0.6242,-0.624,-0.6252,-0.625,-0.6274,-0.6275,-0.6265,-0.6277,-0.6252,-0.6281,-0.6271,-0.627,-0.6265,-0.6199,-0.6182,-0.6134,-0.6223,-0.6222,-0.6221,0,-0.6164,-0.6169,-0.6152,-0.6166,-0.6166,-0.6159,-0.6162,-0.6161,-0.6168,-0.6177,-0.6179,-0.6198,-0.6187,-0.6213,-0.6196,-0.6215,-0.6212,-0.6216,-0.6215,-0.6213,-0.6242,-0.6192,-0.6119,-0.611,-0.6212,-0.6213,-0.6213,0,-0.6114,-0.6117,-0.6106,-0.6109,-0.6127,-0.612,-0.6127,-0.6136,-0.6136,-0.6138,-0.6137,-0.6137,-0.6137,-0.6135,-0.6151,-0.617,-0.613,-0.6159,-0.6134,-0.6133,-0.6124,-0.6124,-0.6046,-0.6126,-0.6126,-0.6126,-0.6126,0,-0.6068,-0.6055,-0.6083,-0.6076,-0.606,-0.6084,-0.6068,-0.6077,-0.6084,-0.6076,-0.6101,-0.6093,-0.6117,-0.611,-0.6123,-0.6104,-0.6105,-0.6108,-0.6111,-0.6105,-0.6104,-0.6102,-0.6104,-0.6124,-0.6125,-0.6125,-0.6125,0,-0.601,-0.6029,-0.6017,-0.6034,-0.6037,-0.6025,-0.6038,-0.603,-0.6041,-0.6031,-0.603,-0.6048,-0.604,-0.6057,-0.6053,-0.6061,-0.6033,-0.6043,-0.603,-0.6032,-0.6004,-0.6005,-0.5921,-0.5909,-0.5999,-0.5998,-0.5998,0,-0.5978,-0.5968,-0.5983,-0.598,-0.5985,-0.598,-0.5979,-0.6,-0.5998,-0.6003,-0.5993,-0.5988,-0.5985,-0.5971,-0.5982,-0.5977,-0.5985,-0.5955,-0.5984,-0.5976,-0.598,-0.5979,-0.5976,-0.5949,-0.5948,-0.5947,-0.5946,0,-0.5917,-0.5926,-0.5925,-0.5924,-0.5922,-0.5923,-0.5926,-0.5921,-0.5943,-0.5938,-0.5931,-0.5929,-0.5922,-0.5915,-0.5912,-0.5916,-0.5932,-0.5937,-0.593,-0.5922,-0.5913,-0.5914,-0.6011,-0.5939,-0.5939,-0.594,-0.594,-0.5941,-0.5869,-0.586,-0.5868,-0.5863,-0.5867,-0.5868,-0.5859,-0.5869,-0.5864,-0.5861,-0.5873,-0.5862,-0.5865,-0.5863,-0.5864,-0.5853,-0.5866,-0.5857,-0.5854,-0.5851,-0.5845,-0.5917,-0.5853,-0.5853,-0.5853,-0.5854,-0.5854,0,-0.5807,-0.5813,-0.5809,-0.581,-0.5805,-0.5823,-0.5825,-0.5819,-0.5809,-0.5811,-0.5807,-0.5795,-0.5787,-0.5796,-0.5789,-0.5778,-0.5785,-0.5775,-0.5774,-0.5774,-0.5836,-0.5841,-0.5769,-0.5769,-0.5769,-0.5769,-0.5769,-0.5769,-0.5775,-0.5759,-0.5767,-0.5751,-0.5756,-0.5746,-0.5745,-0.5743,-0.5745,-0.5731,-0.5724,-0.573,-0.5733,-0.5726,-0.5717,-0.572,-0.5714,-0.57,-0.5705,-0.5762,-0.577,-0.5778,-0.5783,-0.57,-0.57,-0.5643,-0.5643,-0.5642]}]]